User: anonymous   Login
Location: Unspecified
(0.0000°N, 0.0000°E)
Time: 20:14:14
(UTC+00:00)
Language:

Oscar 10/S400 - Orbit

View from above orbital plane
View from above orbital plane
View from above satellite
View from above satellite

Ground track
Ground track

The orbit data is extracted from the following two-line orbital elements,

1 14129U 83058B   19340.62495129 -.00000060  00000-0  00000+0 0  9992
2 14129  26.3058 249.4774 6031234 187.5438 156.0228  2.05867859246393
Epoch (UTC): 06 December 2019 14:59:55
Eccentricity: 0.6031234
inclination: 26.3058°
perigee height: 3981 km
apogee height: 35466 km
right ascension of ascending node: 249.4774°
argument of perigee: 187.5438°
revolutions per day: 2.05867859
mean anomaly at epoch: 156.0228°
orbit number at epoch: 24639

The dashed part of the orbit path shows where the satellite is in the earth's shadow,  

DLR